Weather History for KEAT - March, 2015

Change the Weather History Date:

Thursday, March 26, 2015

  Actual Average Record
Temperature  
Mean Temperature 52 °F 42 °F  
Max Temperature 62 °F 52 °F 74 °F (1994)
Min Temperature 42 °F 32 °F 24 °F (1985)
Degree Days  
Heating Degree Days 13 23  
Month to date heating degree days 574 696  
Since 1 July heating degree days 5008 5895  
Cooling Degree Days 0 0  
Month to date cooling degree days 0 0  
Year to date cooling degree days 0 0  
Growing Degree Days 8 (Base 50)    
Moisture  
Dew Point 45 °F    
Average Humidity 78    
Maximum Humidity 99    
Minimum Humidity 57    
Precipitation  
Precipitation 0.01 in 0.05 in 0.22 in (1985)
Month to date precipitation 2.14 1.42  
Year to date precipitation 5.31 4.75  
Snow  
Snow 0.00 in 0.20 in - ()
Month to date snowfall 0.4 4.5  
Since 1 July snowfall 15.5 50.9  
Snow Depth 0.00 in    
Sea Level Pressure  
Sea Level Pressure 30.23 in    
Wind  
Wind Speed 6 mph (ESE)    
Max Wind Speed 14 mph    
Max Gust Speed 16 mph    
Visibility 10 miles    
Events      
T = Trace of Precipitation, MM = Missing Value Source: NWS Daily Summary

Daily Weather History Graph

Daily Weather History Graph

Search for Another Location

Airport or City:

Trip Planner

Search our weather history database for the weather conditions in past years. The results will help you decide how hot, cold, wet, or windy it might be!

Date:

Astronomy

Mar. 26, 2015 Rise Set
Actual Time 6:51 AM PDT 7:21 PM PDT
Civil Twilight 6:21 AM PDT 7:52 PM PDT
Nautical Twilight 5:44 AM PDT 8:29 PM PDT
Astronomical Twilight 5:06 AM PDT 9:07 PM PDT
Moon 11:18 AM PDT (3/26) 1:45 AM PDT (3/26)
Length of Visible Light 13h 31m
Length of Day
12h 29m
Waxing Crescent, 45% of the Moon is Illuminated
Mar 26
Waxing Crescent
Mar 27
First Quarter
Apr 4
Full
Apr 11
Last Quarter
Apr 18
New

Hourly Weather History & Observations

Time (PDT) Temp. Dew Point Humidity Pressure Visibility Wind Dir Wind Speed Gust Speed Precip Events Conditions
12:55 AM 53.1 °F 44.1 °F 71% 30.26 in 10.0 mi Variable 3.5 mph - N/A   Partly Cloudy
1:55 AM 52.0 °F 44.1 °F 74% 30.27 in 10.0 mi Calm Calm - N/A   Clear
2:55 AM 53.1 °F 43.0 °F 69% 30.27 in 10.0 mi NW 6.9 mph - N/A   Partly Cloudy
3:55 AM 53.1 °F 44.1 °F 71% 30.27 in 10.0 mi NNW 9.2 mph - N/A   Clear
4:55 AM 51.1 °F 44.1 °F 77% 30.27 in 10.0 mi WNW 10.4 mph - N/A   Clear
5:55 AM 48.9 °F 43.0 °F 80% 30.27 in 10.0 mi West 9.2 mph - N/A   Clear
6:55 AM 50.0 °F 43.0 °F 77% 30.28 in 10.0 mi NW 6.9 mph - N/A   Overcast
7:55 AM 51.1 °F 44.1 °F 77% 30.28 in 10.0 mi NW 8.1 mph - N/A   Partly Cloudy
8:55 AM 54.0 °F 44.1 °F 69% 30.29 in 10.0 mi West 4.6 mph - N/A   Clear
9:55 AM 55.0 °F 45.0 °F 69% 30.28 in 10.0 mi SSE 8.1 mph - N/A   Clear
10:55 AM 57.0 °F 45.0 °F 64% 30.28 in 10.0 mi SE 4.6 mph - N/A   Clear
11:55 AM 61.0 °F 44.1 °F 54% 30.27 in 10.0 mi SE 5.8 mph - N/A   Clear
12:55 PM 64.0 °F 44.1 °F 48% 30.25 in 10.0 mi ESE 8.1 mph - N/A   Clear
1:55 PM 64.9 °F 43.0 °F 45% 30.23 in 10.0 mi SE 10.4 mph - N/A   Clear
2:55 PM 66.0 °F 46.9 °F 50% 30.21 in 10.0 mi SE 6.9 mph - N/A   Clear
3:55 PM 66.9 °F 46.9 °F 49% 30.19 in 10.0 mi ESE 8.1 mph - N/A   Clear
4:55 PM 68.0 °F 46.9 °F 47% 30.17 in 10.0 mi ESE 5.8 mph - N/A   Clear
5:55 PM 69.1 °F 48.0 °F 47% 30.16 in 10.0 mi SE 9.2 mph - N/A   Clear
6:55 PM 66.9 °F 48.9 °F 52% 30.15 in 10.0 mi SE 8.1 mph - N/A   Clear
7:55 PM 64.9 °F 48.0 °F 54% 30.15 in 10.0 mi ESE 6.9 mph - N/A   Clear
8:55 PM 62.1 °F 48.0 °F 60% 30.16 in 10.0 mi East 4.6 mph - N/A   Clear
9:55 PM 57.9 °F 48.0 °F 70% 30.17 in 10.0 mi ENE 4.6 mph - N/A   Clear
10:55 PM 61.0 °F 48.0 °F 62% 30.16 in 10.0 mi Calm Calm - N/A   Clear
11:55 PM 55.9 °F 46.9 °F 72% 30.15 in 10.0 mi Calm Calm - N/A   Clear